RYR69LP EPMO-LEPA

Flight info

Callsign RYR69LP
Flight time N/A
Altitude 36000
Route EVINA DCT NAVUR N744 TUSIN DCT MIKOV DCT DETSA/N0447F350 DCT VOG DCT GEKBA/N0435F290 DCT VAMTU DCT KOLON DCT GANGU DCT PADKO DCT VATIR N852 VERSO L129 LUNIK
Aircraft A320/M-SDE3FGHIRWY/LB1

Departure

Time 2026-04-29 09:19
Airport Warsaw Modlin Airport (EPMO)

Arrival

Time N/A
Airport Palma de Mallorca Airport (LEPA)
Time Latitude Longitude Altitude Speed Heading
2026-04-29 09:09 52.44738 20.65179 338 ft 0 kts 206°
2026-04-29 09:13 52.44759 20.65190 334 ft 4 kts 164°
2026-04-29 09:13 52.44777 20.65167 336 ft 4 kts 109°
2026-04-29 09:13 52.44780 20.65133 333 ft 0 kts 81°
2026-04-29 09:15 52.44802 20.65355 338 ft 27 kts 80°
2026-04-29 09:16 52.44831 20.65668 338 ft 28 kts 85°
2026-04-29 09:16 52.44858 20.65992 338 ft 30 kts 81°
2026-04-29 09:16 52.44895 20.66330 335 ft 31 kts 78°
2026-04-29 09:16 52.44938 20.66678 333 ft 30 kts 88°
2026-04-29 09:17 52.44951 20.67001 338 ft 23 kts 78°
2026-04-29 09:17 52.45083 20.67058 337 ft 21 kts 357°
2026-04-29 09:17 52.45230 20.67008 335 ft 22 kts 340°
2026-04-29 09:17 52.45275 20.66858 337 ft 7 kts 261°
2026-04-29 09:18 52.45275 20.66856 338 ft 0 kts 261°
2026-04-29 09:18 52.45275 20.66853 338 ft 2 kts 261°
2026-04-29 09:18 52.45250 20.66565 336 ft 61 kts 264°
2026-04-29 09:19 52.45157 20.65527 340 ft 119 kts 261°
2026-04-29 09:19 52.45015 20.63922 351 ft 161 kts 261°
2026-04-29 09:19 52.44890 20.62111 896 ft 159 kts 268°
2026-04-29 09:19 52.44758 20.60260 1463 ft 166 kts 269°
2026-04-29 09:20 52.44596 20.58369 2109 ft 169 kts 267°
2026-04-29 09:20 52.44391 20.56404 2421 ft 185 kts 265°